Regional Weather Roundup
Issued by NWS

Home | Current Version | Previous Version | Graphics & Text | Print | Product List | Glossary On
Versions: 1 2 3 4 5 6 7 8 9 10 11 12 13 14 15 16 17 18 19 20 21 22 23 24 25 26 27
000
ASUS45 KBOU 242107
RWRCO

WEATHER ROUNDUP FOR COLORADO
NATIONAL WEATHER SERVICE DENVER/BOULDER CO
300 PM MDT FRI OCT 24 2014

NOTE: "FAIR" INDICATES FEW OR NO CLOUDS BELOW 12000 FEET WITH NO
SIGNIFICANT WEATHER AND/OR OBSTRUCTIONS TO VISIBILITY.

COZ001>005-013-030-031-242200-
...NORTHWEST COLORADO...

CITY           SKY/WX    TMP DP  RH WIND       PRES   REMARKS
CRAIG          SUNNY     74  26  16 SW16G24   30.25F
HAYDEN         SUNNY     72  25  17 W16G23    30.26F
MEEKER         SUNNY     74  25  16 SW14G23   30.27F
MOUNT WERNER   NOT AVBL
STEAMBOAT SPGS SUNNY     68  28  22 CALM      30.28F
WALDEN         SUNNY     63  19  19 SW15G23   30.34F
$$

COZ006>008-011-242200-
...WEST CENTRAL VALLEYS...

CITY           SKY/WX    TMP DP  RH WIND       PRES   REMARKS
GRAND JUNCTION SUNNY     73  34  23 NW6       30.23F
MONTROSE       SUNNY     74  32  21 N7        30.28F
EAGLE          SUNNY     72  21  15 W16G26    30.30F
RIFLE          SUNNY     70  34  26 NW6       30.25F
DELTA          SUNNY     78  29  16 CALM      30.24F
NUCLA          NOT AVBL
$$

COZ017>023-064>068-242200-
...SOUTHWEST COLORADO...

CITY           SKY/WX    TMP DP  RH WIND       PRES   REMARKS
DURANGO        SUNNY     70  33  25 SW10G18   30.32F
CORTEZ         SUNNY     74  30  19 VRB3      30.30F
PAGOSA SPRINGS SUNNY     68  25  19 W3        30.38F
TELLURIDE      SUNNY     65  20  17 W9        30.48F
WOLF CREEK PAS SUNNY     52  21  30 SW10G21     N/A
$$

COZ009-010-012-014-032>034-037-058>063-242200-
...CENTRAL COLORADO...

CITY           SKY/WX    TMP DP  RH WIND       PRES   REMARKS
ASPEN          SUNNY     67  25  20 NW12      30.35F
BUENA VISTA    SUNNY     73  10   9 W13       30.33S
COPPER MTN     SUNNY     54   9  16 W9G23     30.62S
BERTHOUD PASS  FAIR      41  37  87 W22       30.63S
COTTONWOOD PAS SUNNY     64  -8   5 W12G22    30.47S
GUNNISON       SUNNY     64  28  25 CALM      30.41F
KREMMLING      SUNNY     70  14  11 SW13G22     N/A
LEADVILLE      SUNNY     60  13  15 NW12G21   30.46F
MONARCH PASS   SUNNY     46  18  31 W36G41    30.71F
SALIDA         SUNNY     75  12   9 SW15G25   30.38S
SUNLIGHT       SUNNY     57  27  30 SW3       30.57S
WILKERSON PASS NOT AVBL
$$

COZ069>075-242200-
...SAN LUIS VALLEY/SANGRE DE CRISTO MOUNTAINS...

CITY           SKY/WX    TMP DP  RH WIND       PRES   REMARKS
ALAMOSA        SUNNY     69  21  16 VRB5      30.35F
LA VETA PASS   SUNNY     63  19  19 S8        30.50S
SAGUACHE       SUNNY     68  30  24 SE7       30.37F
$$

COZ035-036-038>040-242200-
...NORTHERN COLORADO FRONT RANGE...

CITY           SKY/WX    TMP DP  RH WIND       PRES   REMARKS
DENVER INTL AP MOSUNNY   81  19  10 SE10      30.14F
DMNS CITY PARK   N/A     82  20  10 E7G14     30.12F
AURORA         MOSUNNY   80  17   9 SE9       30.16F
FRONT RANGE AP MOSUNNY   82  23  11 E9        30.16S
ERIE MUNI ARPT SUNNY     82  19   9 S16       30.11F
BOULDER MUN AP SUNNY     82  27  13 SE12      30.11F
CENTENNIAL     MOSUNNY   78  19  11 SE10      30.16F
BROOMFIELD     MOSUNNY   82  23  11 SE12      30.15F
FORT COLLINS   SUNNY     81  30  16 S12       30.11F
LONGMONT       SUNNY     83  24  11 S5        30.12F
$$

COZ041-046-047-076>085-087-088-242200-
...PIKES PEAK/PALMER DIVIDE AND SOUTHERN FOOTHILLS...

CITY           SKY/WX    TMP DP  RH WIND       PRES   REMARKS
COLO. SPRINGS  MOSUNNY   78  16   9 S10       30.21F
A. F. ACADEMY  SUNNY     76  14   9 SE13G20   30.22F
ELLICOTT       NOT AVBL
FALCON         SUNNY     77  17  10 S10G16    30.27S
FORT CARSON    SUNNY     78  18  10 SE10      30.18F
LIMON          SUNNY     80  19  10 MISG      30.16F
MONUMENT HILL  SUNNY     73  14  10 S7        30.25S
TRINIDAD       SUNNY     79  27  14 E3        30.18F
$$

COZ042>045-048>051-090-091-242200-
...NORTHEAST COLORADO...

CITY           SKY/WX    TMP DP  RH WIND       PRES   REMARKS
GREELEY ARPT   SUNNY     81  27  13 CALM      30.11F
AKRON          SUNNY     81  22  11 NW8G16    30.11F
BURLINGTON     SUNNY     85  21   9 W5        30.09S
WRAY           SUNNY     89  21   8 NW9G17    30.05S
STERLING       SUNNY     88  28  11 NW12      30.04F
HOLYOKE        SUNNY     86  28  12 NW7       30.05S
FORT MORGAN    SUNNY     83  22  11 W6        30.11S
$$

COZ086-089-092>099-242200-
...SOUTHEAST COLORADO...

CITY           SKY/WX    TMP DP  RH WIND       PRES   REMARKS
PUEBLO         SUNNY     84  19   9 E6        30.11F
LA JUNTA       SUNNY     86  28  12 SW6       30.08F
LAMAR          SUNNY     86  32  14 CALM      30.05F
SPRINGFIELD      N/A     84  32  15 S7        30.10F
$$



USA.gov is the U.S. government's official web portal to all federal, state and local government web resources and services.